EW4529 Weather Reports


Display with metric or nautical units.
time (UTC)temp
F
wind
direction
speed
MPH
gust
MPH
rain 1hr
in
rain 24hr
in
rain mn
in
humidity
%
barometer
mb
20200331110811 45 132 0.0 3.0 0.01 0.24 0.01 97 1016.1
20200331110328 45 125 0.0 4.0 0.01 0.24 0.01 97 1016.0
20200331105825 45 120 0.0 2.0 0.01 0.24 0.01 97 1015.9
20200331105322 45 122 0.0 2.0 0.01 0.24 0.01 97 1015.9
20200331104818 45 121 0.0 1.0 0.00 0.23 0.00 97 1015.8
20200331104320 45 121 0.0 1.0 0.00 0.23 0.00 97 1015.8
20200331103816 45 120 0.0 1.0 0.00 0.23 0.00 97 1015.8
20200331103314 45 120 0.0 2.0 0.00 0.23 0.00 97 1015.8
20200331102811 46 120 0.0 2.0 0.00 0.23 0.00 97 1015.7
20200331102327 46 109 0.0 1.0 0.00 0.23 0.00 97 1015.7
20200331101825 46 339 0.0 0.0 0.00 0.23 0.00 97 1015.6
20200331101322 46 339 0.0 1.0 0.00 0.23 0.00 97 1015.6
20200331100822 46 339 0.0 1.0 0.00 0.23 0.00 97 1015.5
20200331100319 46 323 0.0 0.0 0.00 0.23 0.00 97 1015.5
20200331095816 46 323 0.0 0.0 0.00 0.23 0.00 97 1015.3
20200331095313 46 323 0.0 0.0 0.00 0.23 0.00 97 1015.2
20200331094809 46 323 0.0 0.0 0.00 0.23 0.00 97 1015.1
20200331094326 46 323 0.0 1.0 0.00 0.23 0.00 97 1015.1
20200331093823 46 323 0.0 1.0 0.00 0.23 0.00 97 1015.1
20200331093324 46 345 0.0 1.0 0.00 0.23 0.00 97 1015.2
20200331092823 46 345 0.0 1.0 0.00 0.23 0.00 97 1015.1
20200331092320 46 345 0.0 1.0 0.00 0.23 0.00 97 1015.0
20200331091817 46 317 0.0 1.0 0.00 0.23 0.00 97 1014.8
20200331091314 46 335 0.0 1.0 0.00 0.23 0.00 97 1014.8
20200331090810 46 335 0.0 2.0 0.00 0.23 0.00 97 1014.8
20200331090327 46 335 0.0 2.0 0.00 0.23 0.00 97 1014.6
20200331085827 46 3 0.0 1.0 0.00 0.23 0.00 97 1014.6
20200331085325 46 110 0.0 1.0 0.00 0.23 0.00 97 1014.7
20200331084821 46 328 0.0 3.0 0.00 0.23 0.00 97 1014.6
20200331084318 46 328 1.0 3.0 0.00 0.23 0.00 97 1014.6
20200331083815 46 302 0.0 1.0 0.00 0.23 0.00 97 1014.7
20200331083312 46 338 0.0 1.0 0.00 0.23 0.00 97 1014.6
20200331082809 46 36 0.0 2.0 0.00 0.23 0.00 97 1014.4
20200331082310 46 313 1.0 2.0 0.00 0.23 0.00 97 1014.5
20200331081827 46 347 0.0 0.0 0.00 0.23 0.00 97 1014.6
20200331081324 46 347 0.0 0.0 0.00 0.23 0.00 97 1014.5
20200331080821 46 346 0.0 0.0 0.00 0.23 0.00 97 1014.5
20200331080318 46 347 0.0 1.0 0.00 0.23 0.00 97 1014.5
20200331075816 46 347 0.0 1.0 0.00 0.23 0.00 97 1014.5
20200331075313 46 347 0.0 1.0 0.00 0.23 0.00 97 1014.6
20200331074814 46 347 0.0 0.0 0.00 0.23 0.00 97 1014.7
20200331074311 46 347 0.0 0.0 0.00 0.23 0.00 97 1014.7
20200331073828 46 347 0.0 0.0 0.00 0.23 0.00 97 1014.7
20200331073326 46 347 0.0 0.0 0.00 0.23 0.00 97 1014.8
20200331072823 46 347 0.0 0.0 0.00 0.23 0.00 97 1014.9
20200331072319 46 347 0.0 0.0 0.00 0.23 0.00 97 1014.9
20200331071816 46 347 0.0 0.0 0.00 0.23 0.00 97 1014.9
20200331071317 46 347 0.0 0.0 0.00 0.23 0.00 97 1014.9
20200331070814 46 347 0.0 0.0 0.00 0.23 0.00 97 1014.9
20200331070311 46 347 0.0 1.0 0.00 0.23 0.00 97 1015.0
20200331065828 46 347 0.0 1.0 0.00 0.23 0.00 97 1015.0
20200331065325 46 347 0.0 1.0 0.00 0.23 0.00 97 1015.0
20200331064822 46 347 0.0 1.0 0.00 0.23 0.00 97 1014.9
20200331064319 46 348 0.0 0.0 0.00 0.23 0.00 97 1014.6
20200331063820 47 348 0.0 3.0 0.00 0.23 0.00 97 1014.7
20200331063317 47 348 0.0 3.0 0.00 0.23 0.00 97 1014.7
20200331062814 47 334 0.0 3.0 0.00 0.23 0.00 98 1014.7
20200331062311 47 330 1.0 3.0 0.00 0.23 0.00 98 1014.7
20200331061828 47 299 1.0 3.0 0.00 0.23 0.00 98 1014.7
20200331061325 46 326 0.0 2.0 0.00 0.23 0.00 98 1014.6
20200331060822 46 338 0.0 2.0 0.00 0.23 0.00 98 1014.6
20200331060323 46 329 0.0 1.0 0.00 0.23 0.00 98 1014.7
20200331055819 46 329 0.0 1.0 0.00 0.23 0.00 98 1014.8
20200331055316 46 330 0.0 1.0 0.00 0.23 0.00 98 1014.7
20200331054813 46 339 0.0 1.0 0.00 0.23 0.00 98 1014.6
20200331054310 46 342 0.0 1.0 0.00 0.23 0.00 98 1014.6
20200331053827 46 342 0.0 1.0 0.00 0.23 0.00 98 1014.5
20200331053309 46 342 0.0 2.0 0.00 0.23 0.00 98 1014.6
20200331052826 46 290 0.0 1.0 0.00 0.23 0.00 98 1014.6
20200331052323 46 117 0.0 1.0 0.00 0.23 0.00 98 1014.6
20200331051820 45 117 0.0 1.0 0.00 0.23 0.00 98 1014.6
20200331051318 45 273 0.0 1.0 0.00 0.23 0.00 98 1014.5
20200331050815 45 333 0.0 1.0 0.00 0.23 0.00 98 1014.7
20200331050312 45 333 0.0 0.0 0.00 0.23 0.00 98 1014.8
20200331045812 45 333 0.0 0.0 0.00 0.23 0.00 98 1014.7
20200331045310 45 333 0.0 0.0 0.00 0.23 0.00 98 1014.8
20200331044827 45 334 0.0 0.0 0.00 0.23 0.00 98 1014.8
20200331044325 45 334 0.0 3.0 0.00 0.23 0.00 98 1014.8
20200331043823 45 333 0.0 3.0 0.00 0.23 0.00 98 1014.9
20200331043321 46 20 0.0 0.0 0.00 0.23 0.00 98 1014.8
20200331042819 46 87 0.0 0.0 0.00 0.23 0.00 98 1014.8
20200331042321 46 87 0.0 0.0 0.00 0.23 0.00 98 1014.9
20200331041819 46 87 0.0 0.0 0.00 0.23 0.00 98 1015.0
20200331041317 46 87 0.0 0.0 0.00 0.23 0.00 98 1015.0
20200331040815 46 88 0.0 0.0 0.00 0.23 0.00 98 1015.1
20200331040313 46 88 0.0 0.0 0.00 0.23 0.00 98 1015.1
20200331035810 46 88 0.0 0.0 0.00 0.23 0.23 98 1015.1
20200331035328 46 88 0.0 0.0 0.00 0.23 0.23 98 1015.2
20200331034809 46 87 0.0 0.0 0.00 0.23 0.23 98 1015.2
20200331034326 46 88 0.0 0.0 0.00 0.23 0.23 98 1015.2
20200331033824 46 88 0.0 1.0 0.00 0.23 0.23 98 1015.2
20200331033322 46 88 0.0 1.0 0.00 0.23 0.23 98 1015.2
20200331032819 45 88 0.0 0.0 0.00 0.23 0.23 98 1015.2
20200331032317 45 88 0.0 0.0 0.00 0.23 0.23 98 1015.2
20200331031814 45 88 0.0 0.0 0.00 0.23 0.23 98 1015.1
20200331031316 45 88 0.0 0.0 0.00 0.23 0.23 98 1015.2
20200331030814 45 88 0.0 0.0 0.00 0.23 0.23 98 1015.1
20200331030312 45 88 0.0 0.0 0.00 0.23 0.23 98 1015.2
20200331025828 45 88 0.0 0.0 0.00 0.23 0.23 98 1015.1
20200331025325 45 88 0.0 0.0 0.00 0.23 0.23 98 1015.1
20200331024823 45 88 0.0 0.0 0.00 0.23 0.23 98 1015.0
20200331024321 45 88 0.0 0.0 0.00 0.23 0.23 98 1014.9
20200331023823 45 88 0.0 0.0 0.00 0.23 0.23 98 1015.0
20200331023321 45 88 0.0 1.0 0.00 0.23 0.23 98 1015.0
20200331022819 44 88 0.0 1.0 0.00 0.23 0.23 98 1014.9
20200331022317 44 87 0.0 1.0 0.00 0.23 0.23 98 1014.9
20200331021815 44 12 0.0 0.0 0.00 0.23 0.23 98 1014.9
20200331021312 44 12 0.0 1.0 0.00 0.23 0.23 98 1015.0
20200331020813 44 12 0.0 1.0 0.00 0.23 0.23 98 1014.9
20200331020310 44 340 0.0 1.0 0.00 0.23 0.23 98 1014.9
20200331015827 44 356 0.0 0.0 0.00 0.23 0.23 98 1014.9
20200331015325 44 3 0.0 0.0 0.00 0.23 0.23 98 1014.9
20200331014823 44 3 0.0 0.0 0.00 0.23 0.23 97 1014.8
20200331014320 44 3 0.0 0.0 0.00 0.23 0.23 97 1014.7
20200331013817 44 3 0.0 0.0 0.00 0.23 0.23 97 1014.7
20200331013318 45 3 0.0 0.0 0.00 0.23 0.23 97 1014.7
20200331012815 45 3 0.0 1.0 0.00 0.23 0.23 97 1014.7
20200331012312 45 3 0.0 2.0 0.00 0.23 0.23 97 1014.8
20200331011809 45 288 0.0 2.0 0.00 0.23 0.23 97 1014.9
20200331011326 45 143 0.0 1.0 0.00 0.23 0.23 97 1014.9
20200331010823 45 143 0.0 0.0 0.00 0.23 0.23 97 1014.9
20200331010320 46 143 0.0 0.0 0.00 0.23 0.23 97 1014.9
20200331005821 46 143 0.0 0.0 0.00 0.24 0.23 97 1014.9
20200331005318 46 143 0.0 0.0 0.00 0.24 0.23 97 1014.9
20200331004815 47 143 0.0 0.0 0.00 0.24 0.23 97 1014.9
20200331004312 47 143 0.0 0.0 0.00 0.24 0.23 97 1014.8
20200331003809 47 143 0.0 0.0 0.00 0.24 0.23 97 1014.7
20200331003326 47 143 0.0 0.0 0.00 0.24 0.23 97 1014.6
20200331002823 48 143 0.0 0.0 0.00 0.24 0.23 97 1014.4
20200331002324 48 143 0.0 0.0 0.00 0.24 0.23 97 1014.3
20200331001821 48 266 0.0 0.0 0.00 0.24 0.23 97 1014.3
20200331001318 49 266 0.0 1.0 0.00 0.24 0.23 97 1014.2
20200331000815 49 266 0.0 1.0 0.00 0.24 0.23 97 1014.1
20200331000312 50 265 0.0 0.0 0.00 0.24 0.23 97 1014.0
20200330235809 50 265 0.0 0.0 0.00 0.24 0.23 97 1014.0
20200330235326 50 265 0.0 0.0 0.00 0.24 0.23 97 1014.0
20200330234827 50 265 0.0 0.0 0.00 0.24 0.23 97 1013.9
20200330234324 50 265 0.0 0.0 0.00 0.24 0.23 97 1013.8
20200330233821 50 265 0.0 0.0 0.00 0.24 0.23 97 1013.6
20200330233318 50 265 0.0 0.0 0.00 0.24 0.23 97 1013.5
20200330232815 51 265 0.0 0.0 0.00 0.24 0.23 96 1013.4
20200330232312 51 265 0.0 0.0 0.00 0.24 0.23 96 1013.4
20200330231829 51 265 0.0 0.0 0.00 0.24 0.23 96 1013.4
20200330231327 51 265 0.0 0.0 0.00 0.24 0.23 96 1013.2
20200330230824 52 265 0.0 0.0 0.00 0.24 0.23 96 1013.2
20200330230321 52 265 0.0 0.0 0.00 0.24 0.23 96 1013.2
20200330225817 52 265 0.0 0.0 0.00 0.24 0.23 96 1013.1
20200330225314 53 265 0.0 0.0 0.00 0.24 0.23 96 1013.0
20200330224811 53 265 0.0 0.0 0.00 0.24 0.23 96 1013.0
20200330224328 53 265 0.0 0.0 0.00 0.24 0.23 95 1012.9
20200330223809 53 265 0.0 0.0 0.00 0.24 0.23 95 1013.0
20200330223326 54 265 0.0 0.0 0.00 0.24 0.23 95 1012.9
20200330222823 54 265 0.0 0.0 0.00 0.24 0.23 95 1012.8
20200330222320 54 265 0.0 1.0 0.00 0.24 0.23 95 1012.7
20200330221817 55 1 0.0 0.0 0.00 0.24 0.23 97 1012.6
20200330221314 55 360 0.0 1.0 0.00 0.24 0.23 96 1012.4
20200330220811 55 360 0.0 1.0 0.00 0.24 0.23 96 1012.3
20200330220312 55 16 0.0 1.0 0.00 0.24 0.23 97 1012.2
20200330215809 55 16 0.0 1.0 0.00 0.24 0.23 97 1012.1
20200330215326 55 27 0.0 2.0 0.00 0.24 0.23 97 1012.1
20200330214823 54 28 0.0 2.0 0.10 0.24 0.23 97 1012.0
20200330214320 54 302 0.0 1.0 0.18 0.24 0.23 96 1011.9
20200330213817 54 302 0.0 1.0 0.19 0.24 0.23 96 1011.9
20200330213314 53 302 0.0 1.0 0.20 0.24 0.23 96 1011.8
20200330212815 53 302 0.0 1.0 0.20 0.24 0.23 96 1011.7
20200330212312 53 333 0.0 1.0 0.20 0.24 0.23 96 1011.7
20200330211809 53 333 0.0 2.0 0.20 0.24 0.23 96 1011.7
20200330211326 53 333 0.0 3.0 0.20 0.24 0.23 96 1011.7
20200330210823 53 63 1.0 3.0 0.20 0.24 0.23 95 1011.7
20200330210320 53 130 0.0 1.0 0.20 0.24 0.23 95 1011.3
20200330205816 52 130 0.0 4.0 0.20 0.24 0.23 95 1011.2
20200330205317 52 92 1.0 4.0 0.20 0.24 0.23 95 1011.2
20200330204815 53 205 0.0 2.0 0.08 0.12 0.12 95 1011.6
20200330204312 53 276 0.0 2.0 0.02 0.06 0.05 94 1011.4
20200330203809 53 343 1.0 1.0 0.01 0.05 0.04 94 1011.1
20200330203326 53 342 0.0 1.0 0.00 0.04 0.03 94 1010.9
20200330202823 53 115 0.0 1.0 0.00 0.04 0.03 94 1010.7
20200330202320 53 123 0.0 1.0 0.00 0.04 0.03 93 1010.8
20200330201821 53 123 0.0 3.0 0.02 0.04 0.03 93 1010.7
20200330201318 54 113 0.0 2.0 0.03 0.04 0.03 93 1010.8
20200330200814 54 119 0.0 1.0 0.03 0.04 0.03 93 1010.9
20200330200312 53 119 0.0 2.0 0.03 0.04 0.03 93 1011.2
20200330195828 53 339 0.0 2.0 0.03 0.04 0.03 93 1011.3
20200330195325 54 131 0.0 1.0 0.03 0.04 0.03 93 1010.9
20200330194822 53 133 0.0 3.0 0.03 0.04 0.03 93 1011.0
20200330194322 53 142 1.0 3.0 0.03 0.04 0.03 93 1011.0
20200330193820 53 126 0.0 1.0 0.03 0.04 0.03 92 1010.9
20200330193317 53 127 0.0 1.0 0.03 0.04 0.03 92 1010.9
20200330192814 53 136 0.0 2.0 0.03 0.04 0.03 91 1011.2
20200330192311 54 331 0.0 2.0 0.03 0.04 0.03 90 1011.2
20200330191827 54 2 0.0 2.0 0.01 0.02 0.01 89 1011.3
20200330191308 54 352 0.0 2.0 0.00 0.01 0.00 87 1011.4
20200330190826 55 337 0.0 1.0 0.00 0.01 0.00 86 1011.4
20200330190322 55 354 0.0 1.0 0.00 0.01 0.00 86 1011.4
20200330185820 55 120 0.0 0.0 0.00 0.01 0.00 86 1011.4
20200330185316 55 120 0.0 2.0 0.00 0.01 0.00 86 1011.4
20200330184813 55 110 0.0 2.0 0.00 0.01 0.00 86 1011.4
20200330184310 55 116 0.0 2.0 0.00 0.01 0.00 86 1011.5
20200330183812 55 140 0.0 0.0 0.00 0.01 0.00 86 1011.6
20200330183308 55 140 0.0 0.0 0.00 0.01 0.00 86 1011.8
20200330182825 55 142 0.0 2.0 0.00 0.01 0.00 86 1011.8
20200330182322 55 143 0.0 2.0 0.00 0.01 0.00 85 1011.9
20200330181819 55 146 0.0 0.0 0.00 0.01 0.00 86 1012.0
20200330181316 55 148 0.0 0.0 0.00 0.01 0.00 86 1012.1
20200330180813 55 162 0.0 3.0 0.00 0.01 0.00 86 1012.2
20200330180314 55 150 1.0 3.0 0.00 0.01 0.00 85 1012.2
20200330175810 55 331 0.0 2.0 0.00 0.01 0.00 85 1012.2
20200330175328 55 270 0.0 1.0 0.00 0.01 0.00 85 1012.3
20200330174824 55 269 0.0 1.0 0.00 0.01 0.00 84 1012.2
20200330174322 55 206 0.0 1.0 0.00 0.01 0.00 84 1012.4
20200330173818 55 345 0.0 1.0 0.00 0.01 0.00 84 1012.5
20200330173315 55 102 0.0 1.0 0.00 0.01 0.00 86 1012.6
20200330172816 55 122 0.0 3.0 0.00 0.01 0.00 86 1012.7
20200330172314 55 101 0.0 3.0 0.00 0.01 0.00 87 1012.8
20200330171811 55 129 1.0 3.0 0.00 0.01 0.00 87 1012.9
20200330171328 54 115 0.0 1.0 0.00 0.01 0.00 89 1013.0
20200330170824 54 113 0.0 1.0 0.00 0.01 0.00 90 1013.0
20200330170322 53 114 0.0 1.0 0.00 0.01 0.00 90 1013.2
20200330165818 53 115 0.0 1.0 0.00 0.01 0.00 91 1013.1
20200330165320 53 136 0.0 2.0 0.00 0.01 0.00 92 1013.2
20200330164816 53 136 0.0 2.0 0.00 0.01 0.00 92 1013.2
20200330164313 52 307 0.0 2.0 0.00 0.01 0.00 91 1013.3
20200330163810 52 59 0.0 2.0 0.00 0.01 0.00 92 1013.2
20200330163327 52 314 0.0 3.0 0.00 0.01 0.00 92 1013.2
20200330162825 52 343 1.0 3.0 0.00 0.01 0.00 93 1013.3
20200330162321 52 274 1.0 4.0 0.00 0.01 0.00 93 1013.4
20200330161822 52 130 1.0 4.0 0.00 0.01 0.00 94 1013.5
20200330161319 51 139 0.0 2.0 0.00 0.01 0.00 94 1013.5
20200330160816 51 297 1.0 4.0 0.00 0.01 0.00 94 1013.6
20200330160313 51 149 1.0 4.0 0.00 0.01 0.00 95 1013.8
20200330155810 51 96 1.0 4.0 0.00 0.01 0.00 96 1013.9
20200330155327 51 39 0.0 2.0 0.00 0.01 0.00 96 1013.8
20200330154824 51 357 0.0 2.0 0.00 0.01 0.00 97 1013.9
20200330154325 51 113 0.0 2.0 0.00 0.01 0.00 97 1013.9
20200330153822 51 94 0.0 2.0 0.00 0.01 0.00 97 1014.0
20200330153319 50 307 0.0 2.0 0.00 0.01 0.00 97 1014.0
20200330152816 50 329 0.0 2.0 0.00 0.01 0.00 98 1014.0
20200330152313 50 131 0.0 1.0 0.00 0.01 0.00 98 1014.1
20200330151810 50 20 0.0 2.0 0.00 0.01 0.00 98 1014.2
20200330151327 50 322 0.0 2.0 0.00 0.01 0.00 98 1014.2
20200330150828 50 307 0.0 2.0 0.00 0.01 0.00 98 1014.2
20200330150325 49 310 1.0 2.0 0.00 0.01 0.00 98 1014.4
20200330145821 49 113 1.0 2.0 0.00 0.01 0.00 98 1014.5
20200330145318 49 98 0.0 3.0 0.00 0.01 0.00 98 1014.5
20200330144815 49 137 1.0 3.0 0.00 0.01 0.00 98 1014.5
20200330144312 49 67 0.0 2.0 0.00 0.01 0.00 98 1014.7
20200330143809 49 106 1.0 5.0 0.00 0.01 0.00 98 1014.7
20200330143310 49 152 0.0 2.0 0.00 0.01 0.00 98 1014.9
20200330142827 49 137 0.0 2.0 0.00 0.01 0.00 98 1014.9
20200330142324 49 120 0.0 3.0 0.00 0.01 0.00 98 1015.0
20200330141821 48 356 0.0 3.0 0.00 0.01 0.00 98 1015.1
20200330141318 48 70 0.0 3.0 0.00 0.01 0.00 98 1015.1
20200330140815 48 140 0.0 3.0 0.00 0.01 0.00 98 1015.1
20200330140312 48 115 0.0 3.0 0.00 0.01 0.00 98 1015.2
20200330135813 48 125 0.0 2.0 0.00 0.01 0.00 98 1015.3
20200330135310 48 285 0.0 2.0 0.00 0.01 0.00 98 1015.4
20200330134827 48 139 0.0 2.0 0.00 0.01 0.00 98 1015.3
20200330134324 48 133 1.0 2.0 0.00 0.01 0.00 98 1015.3
20200330133821 48 109 0.0 3.0 0.00 0.01 0.00 98 1015.3
20200330133318 48 134 0.0 3.0 0.00 0.01 0.00 98 1015.2
20200330132815 48 124 0.0 1.0 0.00 0.01 0.00 98 1015.2
20200330132316 48 127 0.0 1.0 0.00 0.01 0.00 98 1015.2
20200330131813 48 128 0.0 3.0 0.00 0.01 0.00 98 1015.3
20200330131310 47 320 0.0 3.0 0.00 0.01 0.00 98 1015.4
20200330130827 48 330 0.0 1.0 0.00 0.01 0.00 98 1015.4
20200330130324 48 98 0.0 1.0 0.00 0.01 0.00 98 1015.4
20200330125820 48 173 0.0 2.0 0.00 0.01 0.00 98 1015.4
20200330125317 48 116 0.0 2.0 0.00 0.01 0.00 98 1015.4
20200330124818 47 110 0.0 1.0 0.00 0.01 0.00 98 1015.5
20200330124315 47 110 0.0 1.0 0.00 0.01 0.00 98 1015.5
20200330123812 47 124 0.0 1.0 0.00 0.01 0.00 98 1015.6
20200330123309 47 135 0.0 1.0 0.00 0.01 0.00 98 1015.7
20200330122826 47 145 0.0 2.0 0.00 0.01 0.00 98 1015.7
20200330122323 47 113 0.0 2.0 0.00 0.01 0.00 98 1015.6
20200330121820 47 124 0.0 1.0 0.00 0.01 0.00 98 1015.6
20200330121321 47 124 0.0 2.0 0.00 0.01 0.00 98 1015.7
20200330120818 47 124 1.0 2.0 0.00 0.01 0.00 98 1015.6
20200330120315 47 70 0.0 1.0 0.00 0.01 0.00 98 1015.6
20200330115812 47 42 0.0 2.0 0.00 0.01 0.00 98 1015.6
20200330115309 47 124 0.0 2.0 0.00 0.01 0.00 98 1015.5
20200330114826 47 110 0.0 1.0 0.00 0.01 0.00 98 1015.4
20200330114323 47 110 0.0 1.0 0.00 0.01 0.00 98 1015.4
20200330113824 47 110 0.0 0.0 0.00 0.01 0.00 98 1015.4
20200330113321 47 110 0.0 0.0 0.00 0.01 0.00 98 1015.3
20200330112818 47 110 0.0 0.0 0.00 0.01 0.00 98 1015.3
20200330112315 47 110 0.0 0.0 0.00 0.01 0.00 98 1015.3
20200330111812 47 110 0.0 1.0 0.00 0.01 0.00 98 1015.1
20200330111329 47 277 0.0 2.0 0.00 0.01 0.00 98 1015.1